Madison, MN

11:35 PM CST on December 13, 2019 (GMT -0600)
Madison-Lac Qui Parle County

Weather History for KDXX - October, 2019

Change the Weather History Date:

Friday, October 11, 2019

  Actual Average (KAQP) Record (KAQP)
Temperature  
Mean Temperature 37 °F -  
Max Temperature 39 °F 58 °F 95 °F (2015)
Min Temperature 35 °F 35 °F 24 °F (2018)
Degree Days  
Heating Degree Days 28    
Moisture  
Dew Point 32 °F    
Average Humidity 82    
Maximum Humidity 100    
Minimum Humidity 70    
Precipitation  
Precipitation 0.00 in - - ()
Sea Level Pressure  
Sea Level Pressure 29.78 in    
Wind  
Wind Speed 18 mph (West)    
Max Wind Speed 28 mph    
Max Gust Speed 39 mph    
Visibility 8 miles    
Events Rain , Snow    
Averages and records for this station are not official NWS values.
T = Trace of Precipitation, MM = Missing Value Source: NWS Daily Summary

Daily Weather History Graph

Daily Weather History Graph

Search for Another Location

Airport or City:

Astronomy

Oct. 11, 2019 Rise Set
Actual Time 7:35 AM CDT 6:47 PM CDT
Civil Twilight 7:05 AM CDT 7:16 PM CDT
Nautical Twilight 6:31 AM CDT 7:50 PM CDT
Astronomical Twilight 5:57 AM CDT 8:24 PM CDT
Moon 6:24 PM CDT (10/11) 5:07 AM CDT (10/11)
Length of Visible Light 12h 10m
Length of Day
11h 12m
Waxing Gibbous, 96% of the Moon is Illuminated
Oct 11
Waxing Gibbous
Oct 13
Full
Oct 21
Last Quarter
Oct 27
New
Nov 4
First Quarter

Hourly Weather History & Observations

Time (CDT) Temp. Windchill Dew Point Humidity Pressure Visibility Wind Dir Wind Speed Gust Speed Precip Events Conditions
12:15 AM 35.6 °F 25.2 °F 35.6 °F 100% 29.82 in 10.0 mi WNW 18.4 mph 21.9 mph N/A   Overcast
12:16 AM 35.6 °F 26.2 °F 35.6 °F 100% 29.82 in 10.0 mi WNW 15.0 mph 21.9 mph N/A   Overcast
12:35 AM 37.4 °F 27.8 °F 35.6 °F 93% 29.82 in 10.0 mi WNW 17.3 mph 24.2 mph N/A   Overcast
12:36 AM 37.4 °F 27.5 °F 35.6 °F 93% 29.82 in 10.0 mi WNW 18.4 mph 24.2 mph N/A   Overcast
12:58 AM 37.4 °F 28.9 °F 35.6 °F 93% 29.82 in 10.0 mi WNW 13.8 mph 21.9 mph N/A   Overcast
1:16 AM 37.4 °F 28.2 °F 33.8 °F 87% 29.80 in 10.0 mi WNW 16.1 mph 27.6 mph N/A   Overcast
1:35 AM 35.6 °F 26.6 °F 33.8 °F 93% 29.81 in 10.0 mi WNW 13.8 mph 19.6 mph N/A Rain Light Rain
1:36 AM 35.6 °F 25.5 °F 33.8 °F 93% 29.80 in 10.0 mi WNW 17.3 mph 23.0 mph N/A Rain Light Rain
1:55 AM 35.6 °F 26.2 °F 35.6 °F 100% 29.82 in 4.0 mi West 15.0 mph - N/A   Overcast
1:56 AM 35.6 °F 26.2 °F 35.6 °F 100% 29.82 in 4.0 mi West 15.0 mph - N/A   Overcast
2:15 AM 35.6 °F 26.2 °F 35.6 °F 100% 29.81 in 5.0 mi WNW 15.0 mph - N/A   Overcast
2:19 AM 35.6 °F 26.2 °F 35.6 °F 100% 29.81 in 7.0 mi WNW 15.0 mph 24.2 mph N/A   Overcast
2:38 AM 35.6 °F 25.9 °F 33.8 °F 93% 29.79 in 10.0 mi WNW 16.1 mph 23.0 mph N/A   Overcast
2:55 AM 35.6 °F 26.2 °F 33.8 °F 93% 29.80 in 10.0 mi WNW 15.0 mph 24.2 mph N/A   Overcast
3:15 AM 37.4 °F 28.2 °F 33.8 °F 87% 29.79 in 10.0 mi WNW 16.1 mph 20.7 mph N/A   Overcast
3:16 AM 37.4 °F 28.9 °F 33.8 °F 87% 29.79 in 10.0 mi WNW 13.8 mph 20.7 mph N/A   Overcast
3:35 AM 37.4 °F 28.5 °F 33.8 °F 87% 29.79 in 10.0 mi WNW 15.0 mph 24.2 mph N/A   Overcast
3:36 AM 37.4 °F 28.5 °F 33.8 °F 87% 29.79 in 10.0 mi WNW 15.0 mph 24.2 mph N/A   Overcast
3:59 AM 37.4 °F 27.8 °F 32.0 °F 81% 29.79 in 10.0 mi WNW 17.3 mph 25.3 mph N/A   Overcast
4:17 AM 37.4 °F 29.3 °F 32.0 °F 81% 29.79 in 10.0 mi West 12.7 mph 21.9 mph N/A   Overcast
4:36 AM 37.4 °F 27.8 °F 32.0 °F 81% 29.79 in 10.0 mi WNW 17.3 mph 23.0 mph N/A   Overcast
4:55 AM 37.4 °F 27.5 °F 32.0 °F 81% 29.79 in 10.0 mi West 18.4 mph 23.0 mph N/A   Overcast
5:15 AM 37.4 °F 28.2 °F 32.0 °F 81% 29.79 in 10.0 mi West 16.1 mph 23.0 mph N/A   Overcast
5:37 AM 37.4 °F 29.3 °F 32.0 °F 81% 29.78 in 10.0 mi West 12.7 mph 24.2 mph N/A   Overcast
5:55 AM 37.4 °F 28.5 °F 32.0 °F 81% 29.78 in 10.0 mi West 15.0 mph 26.5 mph N/A   Overcast
6:15 AM 37.4 °F 29.3 °F 32.0 °F 81% 29.79 in 10.0 mi West 12.7 mph 23.0 mph N/A   Overcast
6:16 AM 37.4 °F 29.3 °F 32.0 °F 81% 29.79 in 10.0 mi West 12.7 mph 23.0 mph N/A   Overcast
6:35 AM 37.4 °F 28.5 °F 32.0 °F 81% 29.80 in 10.0 mi West 15.0 mph 20.7 mph N/A   Overcast
6:36 AM 37.4 °F 28.5 °F 32.0 °F 81% 29.80 in 10.0 mi West 15.0 mph 20.7 mph N/A   Overcast
6:59 AM 35.6 °F 27.5 °F 32.0 °F 87% 29.79 in 10.0 mi West 11.5 mph 23.0 mph N/A   Overcast
7:16 AM 35.6 °F 27.1 °F 33.8 °F 93% 29.79 in 7.0 mi West 12.7 mph 20.7 mph N/A   Overcast
7:36 AM 35.6 °F 26.2 °F 33.8 °F 93% 29.79 in 4.0 mi West 15.0 mph 20.7 mph N/A   Overcast
7:55 AM 35.6 °F 25.9 °F 33.8 °F 93% 29.78 in 4.0 mi West 16.1 mph 19.6 mph N/A   Overcast
8:15 AM 35.6 °F 26.2 °F 33.8 °F 93% 29.78 in 3.0 mi West 15.0 mph 21.9 mph N/A   Overcast
8:19 AM 35.6 °F 24.8 °F 33.8 °F 93% 29.78 in 4.0 mi West 19.6 mph 25.3 mph N/A   Overcast
8:38 AM 35.6 °F 25.2 °F 33.8 °F 93% 29.78 in 2.0 mi West 18.4 mph 25.3 mph N/A Snow Light Snow
8:55 AM 35.6 °F 24.8 °F 33.8 °F 93% 29.77 in 3.0 mi West 19.6 mph 26.5 mph N/A Snow Light Snow
9:15 AM 35.6 °F 24.5 °F 32.0 °F 87% 29.77 in 7.0 mi West 20.7 mph 28.8 mph N/A Snow Light Snow
9:35 AM 35.6 °F 25.5 °F 30.2 °F 81% 29.77 in 10.0 mi West 17.3 mph 28.8 mph N/A Snow Light Snow
9:59 AM 37.4 °F 27.8 °F 30.2 °F 75% 29.77 in 10.0 mi West 17.3 mph 27.6 mph N/A   Overcast
10:16 AM 37.4 °F 26.4 °F 30.2 °F 75% 29.77 in 10.0 mi West 23.0 mph 28.8 mph N/A   Mostly Cloudy
10:35 AM 37.4 °F 26.4 °F 30.2 °F 75% 29.77 in 5.0 mi West 23.0 mph 31.1 mph N/A Snow Light Snow
10:36 AM 37.4 °F 26.9 °F 30.2 °F 75% 29.77 in 5.0 mi West 20.7 mph 31.1 mph N/A Snow Light Snow
10:55 AM 37.4 °F 26.6 °F 32.0 °F 81% 29.77 in 4.0 mi West 21.9 mph 31.1 mph N/A Snow Light Snow
10:56 AM 37.4 °F 26.9 °F 32.0 °F 81% 29.77 in 4.0 mi West 20.7 mph 31.1 mph N/A Snow Light Snow
11:15 AM 37.4 °F 27.8 °F 32.0 °F 81% 29.77 in 3.0 mi West 17.3 mph 31.1 mph N/A Snow Light Snow
11:20 AM 37.4 °F 28.2 °F 32.0 °F 81% 29.77 in 3.0 mi West 16.1 mph 31.1 mph N/A Snow Light Snow
11:37 AM 37.4 °F 26.9 °F 32.0 °F 81% 29.76 in 3.0 mi West 20.7 mph 27.6 mph N/A   Mostly Cloudy
11:56 AM 37.4 °F 26.4 °F 32.0 °F 81% 29.76 in 3.0 mi West 23.0 mph 32.2 mph N/A Snow Light Snow
12:15 PM 37.4 °F 26.6 °F 33.8 °F 87% 29.76 in 1.8 mi West 21.9 mph 31.1 mph N/A Snow Light Snow
12:35 PM 37.4 °F 25.6 °F 32.0 °F 81% 29.76 in 7.0 mi West 26.5 mph 33.4 mph N/A   Overcast
12:39 PM 37.4 °F 26.1 °F 32.0 °F 81% 29.76 in 7.0 mi West 24.2 mph 33.4 mph N/A   Overcast
12:58 PM 37.4 °F 26.4 °F 30.2 °F 75% 29.76 in 10.0 mi West 23.0 mph 33.4 mph N/A   Overcast
1:15 PM 39.2 °F 28.5 °F 30.2 °F 70% 29.76 in 10.0 mi West 24.2 mph 33.4 mph N/A   Overcast
1:35 PM 39.2 °F 28.3 °F 30.2 °F 70% 29.76 in 10.0 mi West 25.3 mph 33.4 mph N/A   Overcast
1:36 PM 39.2 °F 28.0 °F 30.2 °F 70% 29.76 in 10.0 mi West 26.5 mph 33.4 mph N/A   Overcast
1:55 PM 39.2 °F 29.8 °F 30.2 °F 70% 29.76 in 7.0 mi West 18.4 mph 35.7 mph N/A   Overcast
2:18 PM 37.4 °F 25.4 °F 30.2 °F 75% 29.77 in 7.0 mi West 27.6 mph 35.7 mph N/A   Overcast
2:36 PM 37.4 °F 26.1 °F 28.4 °F 70% 29.77 in 10.0 mi West 24.2 mph 35.7 mph N/A   Overcast
2:55 PM 37.4 °F 27.2 °F 30.2 °F 75% 29.77 in 10.0 mi West 19.6 mph 33.4 mph N/A Snow Light Snow
2:56 PM 37.4 °F 26.6 °F 30.2 °F 75% 29.77 in 10.0 mi West 21.9 mph 33.4 mph N/A Snow Light Snow
3:15 PM 37.4 °F 25.4 °F 28.4 °F 70% 29.77 in 3.0 mi West 27.6 mph 35.7 mph N/A Snow Light Snow
3:16 PM 35.6 °F 23.2 °F 28.4 °F 75% 29.77 in 2.5 mi West 26.5 mph 35.7 mph N/A Snow Light Snow
3:35 PM 35.6 °F 24.8 °F 30.2 °F 81% 29.78 in 1.8 mi West 19.6 mph 39.1 mph N/A Snow Light Snow
3:40 PM 35.6 °F 24.2 °F 30.2 °F 81% 29.78 in 1.8 mi West 21.9 mph 32.2 mph N/A Snow Light Snow
3:58 PM 35.6 °F 23.2 °F 30.2 °F 81% 29.78 in 7.0 mi WNW 26.5 mph 35.7 mph N/A   Scattered Clouds
4:16 PM 35.6 °F 23.4 °F 30.2 °F 81% 29.78 in 4.0 mi West 25.3 mph 35.7 mph N/A   Light Drizzle
4:35 PM 35.6 °F 23.0 °F 30.2 °F 81% 29.78 in 10.0 mi West 27.6 mph 33.4 mph N/A   Drizzle
4:55 PM 35.6 °F 24.5 °F 28.4 °F 75% 29.78 in 10.0 mi West 20.7 mph 32.2 mph N/A   Light Drizzle
4:56 PM 35.6 °F 24.5 °F 28.4 °F 75% 29.78 in 10.0 mi West 20.7 mph 32.2 mph N/A   Light Drizzle
5:15 PM 35.6 °F 23.7 °F 30.2 °F 81% 29.78 in 4.0 mi West 24.2 mph 35.7 mph N/A Rain Light Rain
5:20 PM 35.6 °F 23.2 °F 30.2 °F 81% 29.79 in 4.0 mi West 26.5 mph 35.7 mph N/A   Scattered Clouds
5:37 PM 35.6 °F 24.0 °F 30.2 °F 81% 29.79 in 3.0 mi West 23.0 mph 32.2 mph N/A   Scattered Clouds
5:55 PM 35.6 °F 23.2 °F 30.2 °F 81% 29.79 in 2.5 mi West 26.5 mph 35.7 mph N/A   Scattered Clouds
6:15 PM 35.6 °F 24.8 °F 30.2 °F 81% 29.79 in 10.0 mi West 19.6 mph 31.1 mph N/A   Mostly Cloudy
6:35 PM 35.6 °F 24.5 °F 30.2 °F 81% 29.79 in 10.0 mi West 20.7 mph 32.2 mph N/A   Mostly Cloudy
6:36 PM 35.6 °F 24.5 °F 30.2 °F 81% 29.79 in 10.0 mi West 20.7 mph 31.1 mph N/A   Mostly Cloudy
6:58 PM 35.6 °F 24.8 °F 30.2 °F 81% 29.79 in 10.0 mi West 19.6 mph 29.9 mph N/A   Mostly Cloudy
7:17 PM 35.6 °F 24.5 °F 30.2 °F 81% 29.79 in 10.0 mi West 20.7 mph 26.5 mph N/A   Overcast
7:36 PM 35.6 °F 24.5 °F 30.2 °F 81% 29.79 in 4.0 mi West 20.7 mph 26.5 mph N/A Snow Light Snow
7:55 PM 35.6 °F 24.8 °F 30.2 °F 81% 29.78 in 7.0 mi West 19.6 mph 27.6 mph N/A Snow Light Snow
7:56 PM 35.6 °F 24.5 °F 30.2 °F 81% 29.78 in 5.0 mi West 20.7 mph 27.6 mph N/A Snow Light Snow
8:15 PM 35.6 °F 25.2 °F 32.0 °F 87% 29.78 in 7.0 mi West 18.4 mph 31.1 mph N/A Snow Light Snow
8:37 PM 35.6 °F 25.5 °F 32.0 °F 87% 29.77 in 4.0 mi West 17.3 mph 28.8 mph N/A Snow Light Snow
8:55 PM 35.6 °F 24.5 °F 30.2 °F 81% 29.77 in 7.0 mi West 20.7 mph 28.8 mph N/A Snow Light Snow
9:15 PM 37.4 °F 27.8 °F 30.2 °F 75% 29.76 in 10.0 mi West 17.3 mph 28.8 mph N/A Rain Light Rain
9:16 PM 37.4 °F 26.9 °F 30.2 °F 75% 29.76 in 10.0 mi West 20.7 mph 27.6 mph N/A Rain Light Rain
9:35 PM 37.4 °F 27.2 °F 30.2 °F 75% 29.76 in 10.0 mi West 19.6 mph 28.8 mph N/A Snow Light Snow
9:36 PM 37.4 °F 27.2 °F 30.2 °F 75% 29.76 in 10.0 mi West 19.6 mph 28.8 mph N/A Snow Light Snow
9:59 PM 37.4 °F 28.5 °F 30.2 °F 75% 29.75 in 10.0 mi West 15.0 mph 26.5 mph N/A Rain Light Rain
10:17 PM 37.4 °F 27.8 °F 30.2 °F 75% 29.75 in 10.0 mi West 17.3 mph 25.3 mph N/A   Mostly Cloudy
10:35 PM 37.4 °F 26.1 °F 30.2 °F 75% 29.75 in 10.0 mi West 24.2 mph 32.2 mph N/A   Light Drizzle
10:55 PM 37.4 °F 26.9 °F 30.2 °F 75% 29.74 in 10.0 mi West 20.7 mph 31.1 mph N/A Rain Light Rain
10:56 PM 37.4 °F 26.4 °F 30.2 °F 75% 29.74 in 10.0 mi West 23.0 mph 31.1 mph N/A Rain Light Rain
11:15 PM 37.4 °F 26.6 °F 30.2 °F 75% 29.73 in 10.0 mi West 21.9 mph 32.2 mph N/A Rain Light Rain
11:19 PM 37.4 °F 27.2 °F 30.2 °F 75% 29.73 in 10.0 mi West 19.6 mph 32.2 mph N/A Rain Light Rain
11:55 PM 35.6 °F 24.0 °F 28.4 °F 75% 29.72 in 10.0 mi West 23.0 mph 29.9 mph N/A   Mostly Cloudy